Weather History for KCQB - August, 2014

Change the Weather History Date:

Thursday, August 21, 2014

  Actual Average (KOKC) Record (KOKC)
Temperature  
Mean Temperature 88 °F 82 °F  
Max Temperature 98 °F 93 °F 105 °F (1911)
Min Temperature 77 °F 71 °F 51 °F (1956)
Cooling Degree Days 22 17  
Month to date cooling degree days 380  
Year to date cooling degree days 1579  
Growing Degree Days 38 (Base 50)    
Moisture  
Dew Point 75 °F    
Average Humidity 67    
Maximum Humidity 89    
Minimum Humidity 44    
Precipitation  
Precipitation 0.00 in 0.10 in 1.20 in (1979)
Month to date precipitation 2.22  
Year to date precipitation 23.83  
Sea Level Pressure  
Sea Level Pressure 29.95 in    
Wind  
Wind Speed 11 mph (South)    
Max Wind Speed 16 mph    
Max Gust Speed 24 mph    
Visibility 10 miles    
Events      
T = Trace of Precipitation, MM = Missing Value Source: NWS Daily Summary

Daily Weather History Graph

Daily Weather History Graph

Search for Another Location

Airport or City:

Trip Planner

Search our weather history database for the weather conditions in past years. The results will help you decide how hot, cold, wet, or windy it might be!

Date:

Astronomy

Aug. 21, 2014 Rise Set
Actual Time 6:50 AM CDT 8:09 PM CDT
Civil Twilight 6:24 AM CDT 8:35 PM CDT
Nautical Twilight 5:52 AM CDT 9:07 PM CDT
Astronomical Twilight 5:18 AM CDT 9:40 PM CDT
Moon 3:25 AM CDT (8/21) 5:36 PM CDT (8/21)
Length of Visible Light 14h 11m
Length of Day
13h 18m
Waning Crescent, 13% of the Moon is Illuminated
Aug 21
Waning Crescent
Aug 25
New
Sep 2
First Quarter
Sep 8
Full
Sep 15
Last Quarter

Hourly Weather History & Observations

Time (CDT) Temp. Heat Index Dew Point Humidity Pressure Visibility Wind Dir Wind Speed Gust Speed Precip Events Conditions
12:15 AM 84.2 °F 90.9 °F 73.4 °F 70% 29.94 in 10.0 mi South 11.5 mph - N/A   Clear
12:35 AM 82.4 °F 88.2 °F 73.4 °F 74% 29.94 in 10.0 mi South 10.4 mph 19.6 mph N/A   Clear
12:55 AM 82.4 °F 88.2 °F 73.4 °F 74% 29.94 in 10.0 mi South 10.4 mph 18.4 mph N/A   Clear
1:15 AM 82.4 °F 88.2 °F 73.4 °F 74% 29.94 in 10.0 mi South 11.5 mph 17.3 mph N/A   Clear
1:35 AM 82.4 °F 88.2 °F 73.4 °F 74% 29.94 in 10.0 mi South 11.5 mph 19.6 mph N/A   Clear
1:55 AM 82.4 °F 88.2 °F 73.4 °F 74% 29.94 in 10.0 mi South 12.7 mph 21.9 mph N/A   Clear
2:15 AM 82.4 °F 88.2 °F 73.4 °F 74% 29.93 in 10.0 mi South 9.2 mph 17.3 mph N/A   Clear
2:35 AM 82.4 °F 88.2 °F 73.4 °F 74% 29.93 in 10.0 mi South 8.1 mph - N/A   Clear
2:55 AM 80.6 °F 85.4 °F 73.4 °F 79% 29.93 in 10.0 mi South 9.2 mph - N/A   Clear
3:15 AM 80.6 °F 85.4 °F 73.4 °F 79% 29.92 in 10.0 mi South 10.4 mph - N/A   Clear
3:35 AM 80.6 °F 85.4 °F 73.4 °F 79% 29.93 in 10.0 mi South 8.1 mph - N/A   Clear
3:55 AM 80.6 °F 85.4 °F 73.4 °F 79% 29.93 in 10.0 mi South 9.2 mph - N/A   Clear
4:15 AM 78.8 °F - 73.4 °F 83% 29.93 in 10.0 mi South 9.2 mph - N/A   Clear
4:35 AM 78.8 °F - 73.4 °F 83% 29.94 in 10.0 mi South 9.2 mph 16.1 mph N/A   Clear
4:55 AM 78.8 °F - 73.4 °F 83% 29.94 in 10.0 mi South 8.1 mph - N/A   Clear
5:15 AM 78.8 °F - 73.4 °F 83% 29.95 in 10.0 mi South 8.1 mph - N/A   Clear
5:35 AM 78.8 °F - 73.4 °F 83% 29.95 in 10.0 mi South 9.2 mph - N/A   Clear
5:55 AM 78.8 °F - 73.4 °F 83% 29.95 in 10.0 mi South 8.1 mph - N/A   Clear
6:15 AM 78.8 °F - 73.4 °F 83% 29.96 in 10.0 mi South 8.1 mph - N/A   Clear
6:35 AM 77.0 °F - 73.4 °F 89% 29.97 in 10.0 mi SSW 8.1 mph - N/A   Clear
6:55 AM 77.0 °F - 73.4 °F 89% 29.97 in 10.0 mi South 6.9 mph - N/A   Clear
7:15 AM 77.0 °F - 73.4 °F 89% 29.98 in 10.0 mi SSW 8.1 mph - N/A   Clear
7:35 AM 78.8 °F - 73.4 °F 83% 29.98 in 7.0 mi SSW 9.2 mph - N/A   Clear
7:55 AM 78.8 °F - 75.2 °F 89% 29.98 in 10.0 mi SSW 8.1 mph - N/A   Clear
8:15 AM 80.6 °F 86.2 °F 75.2 °F 84% 29.98 in 10.0 mi SSW 10.4 mph - N/A   Clear
8:55 AM 82.4 °F 89.5 °F 75.2 °F 79% 29.99 in 10.0 mi SSW 13.8 mph - N/A   Clear
9:15 AM 84.2 °F 92.3 °F 75.2 °F 74% 29.99 in 10.0 mi SW 13.8 mph - N/A   Clear
9:35 AM 86.0 °F 96.9 °F 77.0 °F 74% 29.99 in 10.0 mi SSW 13.8 mph 19.6 mph N/A   Clear
9:55 AM 87.8 °F 99.7 °F 77.0 °F 70% 29.99 in 10.0 mi SW 13.8 mph 20.7 mph N/A   Clear
10:15 AM 87.8 °F 99.7 °F 77.0 °F 70% 29.99 in 10.0 mi SSW 15.0 mph 19.6 mph N/A   Clear
10:35 AM 89.6 °F 102.2 °F 77.0 °F 66% 29.99 in 10.0 mi SW 16.1 mph - N/A   Clear
10:55 AM 89.6 °F 102.2 °F 77.0 °F 66% 29.99 in 10.0 mi SSW 13.8 mph 18.4 mph N/A   Clear
11:15 AM 89.6 °F 102.2 °F 77.0 °F 66% 29.99 in 10.0 mi SSW 16.1 mph 19.6 mph N/A   Clear
11:35 AM 91.4 °F 105.1 °F 77.0 °F 63% 29.99 in 10.0 mi SW 13.8 mph - N/A   Clear
12:15 PM 93.2 °F 107.2 °F 77.0 °F 59% 29.99 in 10.0 mi SSW 10.4 mph - N/A   Clear
12:35 PM 95.0 °F 109.7 °F 77.0 °F 56% 29.98 in 7.0 mi SSW 12.7 mph 16.1 mph N/A   Clear
12:55 PM 95.0 °F 107.4 °F 75.2 °F 53% 29.98 in 10.0 mi South 11.5 mph 21.9 mph N/A   Clear
1:15 PM 95.0 °F 107.4 °F 75.2 °F 53% 29.97 in 7.0 mi South 13.8 mph 20.7 mph N/A   Clear
1:35 PM 96.8 °F 109.6 °F 75.2 °F 50% 29.97 in 10.0 mi South 12.7 mph 19.6 mph N/A   Clear
1:55 PM 96.8 °F 109.6 °F 75.2 °F 50% 29.97 in 10.0 mi South 12.7 mph 20.7 mph N/A   Scattered Clouds
2:15 PM 96.8 °F 107.3 °F 73.4 °F 47% 29.97 in 10.0 mi SW 13.8 mph 19.6 mph N/A   Scattered Clouds
2:35 PM 96.8 °F 107.3 °F 73.4 °F 47% 29.96 in 10.0 mi SSW 12.7 mph 19.6 mph N/A   Clear
2:55 PM 96.8 °F 109.6 °F 75.2 °F 50% 29.95 in 10.0 mi South 10.4 mph 17.3 mph N/A   Clear
3:15 PM 98.6 °F 109.2 °F 73.4 °F 44% 29.95 in 7.0 mi South 10.4 mph 17.3 mph N/A   Clear
3:35 PM 98.6 °F 111.7 °F 75.2 °F 47% 29.94 in 10.0 mi South 13.8 mph - N/A   Scattered Clouds
3:55 PM 98.6 °F 111.7 °F 75.2 °F 47% 29.94 in 10.0 mi South 12.7 mph 24.2 mph N/A   Clear
4:15 PM 98.6 °F 109.2 °F 73.4 °F 44% 29.94 in 10.0 mi South 11.5 mph 20.7 mph N/A   Clear
4:35 PM 98.6 °F 114.4 °F 77.0 °F 50% 29.94 in 10.0 mi South 12.7 mph 19.6 mph N/A   Scattered Clouds
4:55 PM 98.6 °F 114.4 °F 77.0 °F 50% 29.93 in 10.0 mi South 16.1 mph 19.6 mph N/A   Scattered Clouds
5:15 PM 96.8 °F 112.2 °F 77.0 °F 53% 29.93 in 7.0 mi SSE 15.0 mph 23.0 mph N/A   Scattered Clouds
5:35 PM 96.8 °F 109.6 °F 75.2 °F 50% 29.92 in 7.0 mi South 12.7 mph 24.2 mph N/A   Scattered Clouds
5:55 PM 96.8 °F 112.2 °F 77.0 °F 53% 29.92 in 10.0 mi South 13.8 mph 20.7 mph N/A   Scattered Clouds
6:15 PM 95.0 °F 109.7 °F 77.0 °F 56% 29.92 in 10.0 mi South 13.8 mph 19.6 mph N/A   Clear
6:35 PM 95.0 °F 109.7 °F 77.0 °F 56% 29.93 in 10.0 mi South 16.1 mph 20.7 mph N/A   Clear
6:55 PM 93.2 °F 107.2 °F 77.0 °F 59% 29.93 in 10.0 mi South 12.7 mph 19.6 mph N/A   Clear
7:15 PM 91.4 °F 105.1 °F 77.0 °F 63% 29.93 in 10.0 mi South 15.0 mph 23.0 mph N/A   Clear
7:35 PM 91.4 °F 105.1 °F 77.0 °F 63% 29.93 in 10.0 mi South 8.1 mph 17.3 mph N/A   Clear
7:55 PM 89.6 °F 99.8 °F 75.2 °F 62% 29.93 in 10.0 mi South 13.8 mph 18.4 mph N/A   Clear
8:15 PM 89.6 °F 99.8 °F 75.2 °F 62% 29.93 in 5.0 mi South 10.4 mph - N/A   Haze
8:35 PM 87.8 °F 97.6 °F 75.2 °F 66% 29.94 in 10.0 mi South 9.2 mph - N/A   Clear
8:55 PM 87.8 °F 97.6 °F 75.2 °F 66% 29.95 in 10.0 mi South 8.1 mph - N/A   Clear
9:15 PM 87.8 °F 97.6 °F 75.2 °F 66% 29.95 in 10.0 mi South 9.2 mph - N/A   Clear
9:35 PM 87.8 °F 97.6 °F 75.2 °F 66% 29.96 in 10.0 mi South 8.1 mph - N/A   Clear
9:55 PM 87.8 °F 97.6 °F 75.2 °F 66% 29.96 in 10.0 mi South 9.2 mph - N/A   Clear
10:15 PM 86.0 °F 95.1 °F 75.2 °F 70% 29.97 in 10.0 mi South 9.2 mph - N/A   Clear
10:35 PM 86.0 °F 93.4 °F 73.4 °F 66% 29.97 in 10.0 mi South 9.2 mph - N/A   Clear
11:15 PM 86.0 °F 93.4 °F 73.4 °F 66% 29.97 in 10.0 mi SSE 8.1 mph - N/A   Clear
11:35 PM 86.0 °F 93.4 °F 73.4 °F 66% 29.96 in 10.0 mi South 9.2 mph - N/A   Clear
11:55 PM 84.2 °F 90.9 °F 73.4 °F 70% 29.96 in 10.0 mi South 9.2 mph - N/A   Clear